Location: McFarlands Corners
(41.4117°N, 81.3382°W)
Time: 20:12:10
(UTC+00:00)

SR - Pass Details

Date: 23 February 2026
Orbit: 572 x 848 km, 66.7° (Epoch: 8 March)

Event Time Altitude Azimuth Distance (km) Brightness Sun altitude
Rises 09:57:21 0° 256° (WSW) 2,789 - -25.4°
Reaches altitude 10° 10:00:19 10° 279° (W) 1,919 - -24.8°
Maximum altitude 10:02:58 16° 317° (NW) 1,608 - -24.3°
Exits shadow 10:05:03 12° 348° (NNW) 1,848 ? -23.9°
Drops below altitude 10° 10:05:42 10° 355° (N) 1,994 ? -23.8°
Sets 10:08:53 0° 18° (NNE) 2,960 ? -23.2°
